• Em Portugal
  • Lista de países
  • Para 7 dias
  • Temperatura da água
  • Mapas de satélite
  • Mapa do tempo
  • Widgets de tempo
  • user-avatar
    Iniciar Sessão

    Previsão horária em Hozhaynovo

    Hoje, 17 Agosto, Sexta-feira

    Tempo Temperatura Precipitação Vento Pressão Humidade
    00:00 +16°C° 0 mm 2 m/s 746 mmHg 94%
    01:00 +16°C° 0 mm 2 m/s 746 mmHg 95%
    02:00 +16°C° 0 mm 2 m/s 746 mmHg 96%
    03:00 +16°C° 0 mm 2 m/s 746 mmHg 96%
    04:00 +15°C° 0 mm 2 m/s 747 mmHg 96%
    05:00 +14°C° 0 mm 3 m/s 747 mmHg 96%
    06:00 +16°C° 0 mm 3 m/s 747 mmHg 91%
    07:00 +18°C° 0 mm 3 m/s 747 mmHg 86%
    08:00 +19°C° 0 mm 4 m/s 747 mmHg 81%
    09:00 +20°C° 0 mm 4 m/s 747 mmHg 74%
    10:00 +22°C° 0 mm 4 m/s 748 mmHg 68%
    11:00 +23°C° 0 mm 4 m/s 748 mmHg 61%
    12:00 +23°C° 0 mm 4 m/s 747 mmHg 60%
    13:00 +25°C° 0 mm 4 m/s 747 mmHg 58%
    14:00 +25°C° 0 mm 4 m/s 747 mmHg 56%
    15:00 +25°C° 0 mm 4 m/s 747 mmHg 58%
    16:00 +24°C° 0 mm 3 m/s 747 mmHg 61%
    17:00 +24°C° 0 mm 3 m/s 747 mmHg 64%
    18:00 +21°C° 0 mm 3 m/s 747 mmHg 69%
    19:00 +19°C° 0 mm 3 m/s 747 mmHg 74%
    20:00 +17°C° 0 mm 2 m/s 747 mmHg 79%
    21:00 +17°C° 0 mm 2 m/s 747 mmHg 80%
    22:00 +16°C° 0 mm 2 m/s 747 mmHg 81%
    23:00 +15°C° 0 mm 2 m/s 747 mmHg 81%

    Amanhã, 18 Agosto, Sábado

    Tempo Temperatura Precipitação Vento Pressão Humidade
    00:00 +15°C° 0 mm 2 m/s 748 mmHg 82%
    01:00 +15°C° 0 mm 2 m/s 748 mmHg 82%
    02:00 +14°C° 0 mm 2 m/s 748 mmHg 83%
    03:00 +14°C° 0 mm 2 m/s 748 mmHg 84%
    04:00 +14°C° 0 mm 2 m/s 748 mmHg 85%
    05:00 +14°C° 0 mm 2 m/s 748 mmHg 86%
    06:00 +16°C° 0 mm 2 m/s 748 mmHg 80%
    07:00 +18°C° 0 mm 2 m/s 749 mmHg 74%
    08:00 +20°C° 0 mm 2 m/s 749 mmHg 67%
    09:00 +21°C° 0 mm 3 m/s 749 mmHg 63%
    10:00 +22°C° 0 mm 3 m/s 749 mmHg 58%
    11:00 +24°C° 0 mm 3 m/s 749 mmHg 53%
    12:00 +25°C° 0 mm 3 m/s 749 mmHg 52%
    13:00 +25°C° 0 mm 3 m/s 748 mmHg 51%
    14:00 +25°C° 0 mm 3 m/s 748 mmHg 50%
    15:00 +25°C° 0 mm 3 m/s 748 mmHg 53%
    16:00 +25°C° 0 mm 2 m/s 748 mmHg 57%
    17:00 +24°C° 0 mm 2 m/s 748 mmHg 60%
    18:00 +21°C° 0 mm 2 m/s 748 mmHg 64%
    19:00 +19°C° 0 mm 2 m/s 748 mmHg 68%
    20:00 +17°C° 0 mm 2 m/s 748 mmHg 72%
    21:00 +17°C° 0 mm 2 m/s 748 mmHg 74%
    22:00 +16°C° 0 mm 2 m/s 748 mmHg 75%
    23:00 +16°C° 0 mm 2 m/s 748 mmHg 77%

    Depois de amanhã, 19 Agosto, Domingo

    Tempo Temperatura Precipitação Vento Pressão Humidade
    00:00 +15°C° 0 mm 2 m/s 748 mmHg 78%
    01:00 +15°C° 0 mm 2 m/s 748 mmHg 79%
    02:00 +14°C° 0 mm 2 m/s 748 mmHg 80%
    03:00 +14°C° 0 mm 2 m/s 748 mmHg 81%
    04:00 +14°C° 0 mm 2 m/s 748 mmHg 82%
    05:00 +14°C° 0 mm 2 m/s 748 mmHg 83%
    06:00 +16°C° 0 mm 2 m/s 748 mmHg 77%
    07:00 +18°C° 0 mm 2 m/s 748 mmHg 71%
    08:00 +20°C° 0 mm 2 m/s 748 mmHg 65%
    09:00 +21°C° 0 mm 3 m/s 748 mmHg 60%
    10:00 +24°C° 0 mm 3 m/s 748 mmHg 55%
    11:00 +25°C° 0 mm 3 m/s 748 mmHg 50%
    12:00 +25°C° 0 mm 3 m/s 748 mmHg 49%
    13:00 +26°C° 0 mm 3 m/s 747 mmHg 48%
    14:00 +26°C° 0 mm 3 m/s 747 mmHg 47%
    15:00 +26°C° 0 mm 3 m/s 747 mmHg 51%
    16:00 +25°C° 0 mm 3 m/s 746 mmHg 54%
    17:00 +25°C° 0 mm 2 m/s 746 mmHg 58%
    18:00 +23°C° 0 mm 2 m/s 746 mmHg 62%
    19:00 +20°C° 0 mm 2 m/s 746 mmHg 66%
    20:00 +18°C° 0 mm 2 m/s 746 mmHg 70%
    21:00 +17°C° 0 mm 2 m/s 746 mmHg 71%
    22:00 +17°C° 0 mm 2 m/s 746 mmHg 73%
    23:00 +16°C° 0 mm 2 m/s 746 mmHg 74%

    20 Agosto, Segunda-feira

    Tempo Temperatura Precipitação Vento Pressão Humidade
    00:00 +16°C° 0 mm 2 m/s 746 mmHg 75%
    01:00 +15°C° 0 mm 2 m/s 745 mmHg 77%
    02:00 +15°C° 0 mm 2 m/s 745 mmHg 78%
    03:00 +14°C° 0 mm 3 m/s 745 mmHg 78%
    04:00 +14°C° 0 mm 3 m/s 745 mmHg 79%
    05:00 +14°C° 0 mm 3 m/s 745 mmHg 80%
    06:00 +17°C° 0 mm 3 m/s 745 mmHg 75%
    07:00 +18°C° 0 mm 3 m/s 745 mmHg 70%
    08:00 +20°C° 0 mm 4 m/s 745 mmHg 65%
    09:00 +22°C° 0 mm 4 m/s 745 mmHg 61%
    10:00 +23°C° 0 mm 4 m/s 745 mmHg 57%
    11:00 +26°C° 0 mm 4 m/s 745 mmHg 54%
    12:00 +26°C° 0,1 mm 4 m/s 745 mmHg 53%
    13:00 +27°C° 0,1 mm 4 m/s 744 mmHg 53%
    14:00 +27°C° 0,1 mm 4 m/s 744 mmHg 53%
    15:00 +26°C° 0,4 mm 4 m/s 744 mmHg 59%
    16:00 +25°C° 0,4 mm 3 m/s 744 mmHg 65%
    17:00 +25°C° 0,4 mm 2 m/s 744 mmHg 71%
    18:00 +23°C° 0,1 mm 2 m/s 744 mmHg 76%
    19:00 +21°C° 0,1 mm 2 m/s 744 mmHg 80%
    20:00 +20°C° 0,1 mm 2 m/s 744 mmHg 85%
    21:00 +19°C° 0 mm 2 m/s 744 mmHg 87%
    22:00 +19°C° 0 mm 2 m/s 744 mmHg 89%
    23:00 +18°C° 0 mm 2 m/s 744 mmHg 91%

    21 Agosto, Terça-feira

    Tempo Temperatura Precipitação Vento Pressão Humidade
    00:00 +19°C° 0 mm 1 m/s 744 mmHg 92%
    01:00 +18°C° 0 mm 1 m/s 744 mmHg 93%
    02:00 +18°C° 0 mm 1 m/s 744 mmHg 94%
    03:00 +16°C° 0 mm 1 m/s 744 mmHg 94%
    04:00 +16°C° 0 mm 1 m/s 744 mmHg 94%
    05:00 +16°C° 0 mm 1 m/s 745 mmHg 95%
    06:00 +19°C° 0 mm 1 m/s 745 mmHg 89%
    07:00 +20°C° 0 mm 1 m/s 745 mmHg 83%
    08:00 +22°C° 0 mm 1 m/s 745 mmHg 78%
    09:00 +23°C° 0,5 mm 1 m/s 745 mmHg 73%
    10:00 +24°C° 0,5 mm 2 m/s 745 mmHg 69%
    11:00 +25°C° 0,5 mm 2 m/s 745 mmHg 65%
    12:00 +25°C° 1,3 mm 2 m/s 745 mmHg 65%
    13:00 +26°C° 1,3 mm 2 m/s 744 mmHg 64%
    14:00 +26°C° 1,3 mm 3 m/s 744 mmHg 64%
    15:00 +26°C° 1,2 mm 3 m/s 744 mmHg 68%
    16:00 +25°C° 1,2 mm 2 m/s 744 mmHg 72%
    17:00 +25°C° 1,2 mm 2 m/s 744 mmHg 76%
    18:00 +23°C° 0,1 mm 2 m/s 744 mmHg 80%
    19:00 +21°C° 0,1 mm 2 m/s 744 mmHg 85%
    20:00 +19°C° 0,1 mm 2 m/s 744 mmHg 90%
    21:00 +19°C° 0 mm 2 m/s 744 mmHg 91%
    22:00 +19°C° 0 mm 2 m/s 743 mmHg 92%
    23:00 +18°C° 0 mm 2 m/s 743 mmHg 93%

    22 Agosto, Quarta-feira

    Tempo Temperatura Precipitação Vento Pressão Humidade
    00:00 +18°C° 0 mm 2 m/s 743 mmHg 94%
    01:00 +18°C° 0 mm 2 m/s 743 mmHg 94%
    02:00 +17°C° 0 mm 2 m/s 743 mmHg 95%
    03:00 +17°C° 0 mm 2 m/s 743 mmHg 95%
    04:00 +17°C° 0 mm 3 m/s 743 mmHg 95%
    05:00 +17°C° 0 mm 3 m/s 743 mmHg 95%
    06:00 +19°C° 0 mm 3 m/s 743 mmHg 89%
    07:00 +20°C° 0 mm 4 m/s 743 mmHg 84%
    08:00 +22°C° 0 mm 4 m/s 743 mmHg 78%
    09:00 +23°C° 0,1 mm 4 m/s 743 mmHg 73%
    10:00 +25°C° 0,1 mm 5 m/s 743 mmHg 68%
    11:00 +27°C° 0,1 mm 5 m/s 743 mmHg 62%
    12:00 +26°C° 0,2 mm 5 m/s 742 mmHg 64%
    13:00 +26°C° 0,2 mm 4 m/s 742 mmHg 66%
    14:00 +26°C° 0,2 mm 4 m/s 742 mmHg 67%
    15:00 +25°C° 0,1 mm 4 m/s 742 mmHg 69%
    16:00 +25°C° 0,1 mm 3 m/s 742 mmHg 71%
    17:00 +24°C° 0,1 mm 3 m/s 742 mmHg 73%
    18:00 +23°C° 0 mm 2 m/s 742 mmHg 78%
    19:00 +21°C° 0 mm 2 m/s 742 mmHg 82%
    20:00 +20°C° 0 mm 2 m/s 742 mmHg 87%
    21:00 +19°C° 0 mm 2 m/s 742 mmHg 89%
    22:00 +19°C° 0 mm 2 m/s 742 mmHg 90%
    23:00 +18°C° 0 mm 2 m/s 742 mmHg 92%
    Mostrar mais